User: anonymous   Login
Location: ScottNC Observatory
(36.0892°N, 80.4832°W)
Time: 13:02:28
(UTC-04:00)
Language:

MOZHAYETS 4 - Orbit

View from above orbital plane
View from above orbital plane
View from above satellite
View from above satellite

Ground track
Ground track

The orbit data is extracted from the following two-line orbital elements,

1 27939U 03042A   19289.01795539 -.00000015  00000-0  60103-5 0  9999
2 27939  98.0580  62.6275 0013864  53.8141 306.4324 14.66808962858030
Epoch (UTC): 16 October 2019 00:25:51
Eccentricity: 0.0013864
inclination: 98.0580°
perigee height: 661 km
apogee height: 681 km
right ascension of ascending node: 62.6275°
argument of perigee: 53.8141°
revolutions per day: 14.66808962
mean anomaly at epoch: 306.4324°
orbit number at epoch: 85803

The dashed part of the orbit path shows where the satellite is in the earth's shadow,  

DLR